Location: Bun Machan
(52.1403°N, 7.3744°W)
Time: 07:33:47
(UTC+00:00)

Cosmos 1356 - Pass Details

Date: 14 July 2020
Orbit: 443 x 448 km, 81.1° (Epoch: 04 August)

Event Time Altitude Azimuth Distance (km) Brightness Sun altitude
Exits shadow 03:38:11 - 202° (SSW) 1,826 5.9 -6.2°
Reaches altitude 10° 03:38:48 10° 204° (SSW) 1,574 5.5 -6.1°
Maximum altitude 03:42:12 60° 285° (WNW) 519 3.6 -5.8°
Drops below altitude 10° 03:45:38 10° 7° (N) 1,585 7.1 -5.4°
Sets 03:47:43 0° 11° (N) 2,461 8.2 -5.2°
